TimeEST,TemperatureF,Dew PointF,Humidity,Sea Level PressureIn,VisibilityMPH,Wind Direction,Wind SpeedMPH,Gust SpeedMPH,PrecipitationIn,Events,Conditions,WindDirDegrees,DateUTC
12:15 AM,32.0,30.2,93,30.23,10.0,Calm,Calm,-,N/A,,Clear,0,2013-02-26 05:15:00
12:35 AM,32.0,30.2,93,30.22,10.0,Calm,Calm,-,N/A,,Partly Cloudy,0,2013-02-26 05:35:00
12:55 AM,32.0,30.2,93,30.22,10.0,Calm,Calm,-,N/A,,Scattered Clouds,0,2013-02-26 05:55:00
1:15 AM,32.0,30.2,93,30.22,10.0,Calm,Calm,-,N/A,,Overcast,0,2013-02-26 06:15:00
1:35 AM,32.0,32.0,100,30.24,10.0,Calm,Calm,-,N/A,,Overcast,0,2013-02-26 06:35:00
1:55 AM,33.8,32.0,93,30.25,10.0,Calm,Calm,-,N/A,,Overcast,0,2013-02-26 06:55:00
2:15 AM,33.8,30.2,87,30.26,10.0,West,3.5,-,N/A,,Overcast,280,2013-02-26 07:15:00
2:35 AM,35.6,30.2,81,30.26,10.0,West,3.5,-,N/A,,Overcast,270,2013-02-26 07:35:00
2:55 AM,35.6,30.2,81,30.27,10.0,West,3.5,-,N/A,,Overcast,260,2013-02-26 07:55:00
3:35 AM,35.6,30.2,81,30.25,10.0,SSW,4.6,-,N/A,,Overcast,200,2013-02-26 08:35:00
3:55 AM,32.0,32.0,100,30.26,10.0,Calm,Calm,-,N/A,,Overcast,0,2013-02-26 08:55:00
4:15 AM,33.8,30.2,87,30.26,10.0,Calm,Calm,-,N/A,,Overcast,0,2013-02-26 09:15:00
4:35 AM,33.8,30.2,87,30.27,10.0,Calm,Calm,-,N/A,,Overcast,0,2013-02-26 09:35:00
4:55 AM,33.8,30.2,87,30.27,10.0,NNW,3.5,-,N/A,,Overcast,330,2013-02-26 09:55:00
5:15 AM,33.8,30.2,87,30.27,10.0,Calm,Calm,-,N/A,,Overcast,0,2013-02-26 10:15:00
5:35 AM,33.8,30.2,87,30.27,10.0,Calm,Calm,-,N/A,,Overcast,0,2013-02-26 10:35:00
5:55 AM,33.8,30.2,87,30.28,10.0,Calm,Calm,-,N/A,,Overcast,0,2013-02-26 10:55:00
6:15 AM,33.8,30.2,87,30.28,10.0,North,3.5,-,N/A,,Overcast,360,2013-02-26 11:15:00
6:35 AM,33.8,30.2,87,30.28,9.0,North,3.5,-,N/A,,Overcast,360,2013-02-26 11:35:00
6:55 AM,35.6,30.2,81,30.28,9.0,NNE,3.5,-,N/A,,Overcast,20,2013-02-26 11:55:00
7:15 AM,35.6,30.2,81,30.29,10.0,North,3.5,-,N/A,,Overcast,360,2013-02-26 12:15:00
7:35 AM,35.6,30.2,81,30.30,10.0,Calm,Calm,-,N/A,,Overcast,0,2013-02-26 12:35:00
7:55 AM,37.4,30.2,75,30.30,10.0,North,3.5,-,N/A,,Overcast,10,2013-02-26 12:55:00
8:15 AM,37.4,30.2,75,30.30,10.0,NE,3.5,-,N/A,,Overcast,40,2013-02-26 13:15:00
8:35 AM,37.4,30.2,75,30.29,10.0,ENE,3.5,-,N/A,,Overcast,60,2013-02-26 13:35:00
8:55 AM,39.2,30.2,70,30.31,10.0,ENE,4.6,-,N/A,,Overcast,70,2013-02-26 13:55:00
9:15 AM,39.2,30.2,70,30.31,10.0,ESE,3.5,-,N/A,,Overcast,110,2013-02-26 14:15:00
9:35 AM,39.2,30.2,70,30.31,10.0,SE,4.6,-,N/A,,Overcast,140,2013-02-26 14:35:00
9:55 AM,39.2,28.4,65,30.30,10.0,ESE,5.8,-,N/A,,Overcast,120,2013-02-26 14:55:00
10:15 AM,39.2,28.4,65,30.30,10.0,ESE,4.6,-,N/A,,Overcast,120,2013-02-26 15:15:00
10:35 AM,39.2,26.6,61,30.31,10.0,East,4.6,-,N/A,,Overcast,90,2013-02-26 15:35:00
10:55 AM,39.2,26.6,61,30.30,10.0,ESE,4.6,-,N/A,,Overcast,120,2013-02-26 15:55:00
11:15 AM,39.2,28.4,65,30.30,10.0,SE,6.9,-,N/A,,Overcast,140,2013-02-26 16:15:00
11:35 AM,41.0,28.4,61,30.30,10.0,SSE,6.9,-,N/A,,Overcast,150,2013-02-26 16:35:00
11:55 AM,39.2,28.4,65,30.29,10.0,ESE,5.8,-,N/A,,Overcast,120,2013-02-26 16:55:00
12:15 PM,39.2,30.2,70,30.29,10.0,ESE,8.1,-,N/A,,Overcast,120,2013-02-26 17:15:00
12:35 PM,39.2,32.0,75,30.28,10.0,SE,8.1,-,N/A,,Mostly Cloudy,140,2013-02-26 17:35:00
12:55 PM,39.2,32.0,75,30.27,10.0,SE,5.8,-,N/A,,Mostly Cloudy,140,2013-02-26 17:55:00
1:15 PM,39.2,32.0,75,30.27,10.0,SSE,6.9,-,N/A,,Mostly Cloudy,150,2013-02-26 18:15:00
1:35 PM,39.2,32.0,75,30.26,10.0,ESE,4.6,-,N/A,,Overcast,110,2013-02-26 18:35:00
1:55 PM,39.2,32.0,75,30.25,10.0,SE,8.1,-,N/A,,Overcast,130,2013-02-26 18:55:00
2:15 PM,39.2,30.2,70,30.25,10.0,SE,6.9,-,N/A,,Overcast,130,2013-02-26 19:15:00
2:35 PM,39.2,32.0,75,30.26,10.0,SSE,8.1,-,N/A,,Overcast,150,2013-02-26 19:35:00
2:55 PM,37.4,32.0,81,30.25,10.0,SE,5.8,-,N/A,,Overcast,140,2013-02-26 19:55:00
3:15 PM,37.4,32.0,81,30.25,10.0,SE,5.8,-,N/A,,Mostly Cloudy,140,2013-02-26 20:15:00
3:35 PM,37.4,32.0,81,30.23,10.0,SE,8.1,-,N/A,,Partly Cloudy,140,2013-02-26 20:35:00
3:55 PM,37.4,30.2,75,30.22,10.0,ESE,6.9,-,N/A,,Clear,110,2013-02-26 20:55:00
4:15 PM,37.4,28.4,70,30.22,10.0,ESE,6.9,-,N/A,,Clear,110,2013-02-26 21:15:00
4:35 PM,37.4,28.4,70,30.21,10.0,ESE,5.8,-,N/A,,Clear,120,2013-02-26 21:35:00
4:55 PM,35.6,28.4,75,30.21,10.0,ESE,5.8,-,N/A,,Clear,110,2013-02-26 21:55:00
5:15 PM,35.6,28.4,75,30.22,10.0,ESE,5.8,-,N/A,,Clear,110,2013-02-26 22:15:00
5:35 PM,35.6,28.4,75,30.20,10.0,East,5.8,-,N/A,,Clear,100,2013-02-26 22:35:00
5:55 PM,35.6,28.4,75,30.19,10.0,East,6.9,-,N/A,,Clear,100,2013-02-26 22:55:00
6:15 PM,35.6,28.4,75,30.20,10.0,East,4.6,-,N/A,,Clear,100,2013-02-26 23:15:00
6:35 PM,35.6,28.4,75,30.19,10.0,East,6.9,-,N/A,,Clear,100,2013-02-26 23:35:00
6:55 PM,35.6,28.4,75,30.18,10.0,East,6.9,-,N/A,,Clear,80,2013-02-26 23:55:00
7:15 PM,35.6,28.4,75,30.17,10.0,East,6.9,-,N/A,,Clear,90,2013-02-27 00:15:00
7:35 PM,35.6,28.4,75,30.16,10.0,East,6.9,-,N/A,,Partly Cloudy,90,2013-02-27 00:35:00
7:55 PM,35.6,28.4,75,30.17,10.0,East,8.1,-,N/A,,Mostly Cloudy,80,2013-02-27 00:55:00
8:15 PM,35.6,30.2,81,30.16,10.0,East,6.9,-,N/A,,Overcast,90,2013-02-27 01:15:00
8:35 PM,35.6,30.2,81,30.14,10.0,East,9.2,-,N/A,,Overcast,90,2013-02-27 01:35:00
8:55 PM,35.6,32.0,87,30.12,7.0,East,9.2,-,0.01,Rain,Light Rain,90,2013-02-27 01:55:00
9:15 PM,35.6,32.0,87,30.12,10.0,East,8.1,-,N/A,Rain,Light Rain,90,2013-02-27 02:15:00
9:35 PM,33.8,32.0,93,30.10,10.0,East,8.1,-,N/A,,Overcast,90,2013-02-27 02:35:00
9:55 PM,35.6,32.0,87,30.08,10.0,East,10.4,-,N/A,,Overcast,80,2013-02-27 02:55:00
10:15 PM,35.6,32.0,87,30.07,5.0,East,6.9,17.3,N/A,Rain,Light Rain,90,2013-02-27 03:15:00
10:55 PM,33.8,32.0,93,30.05,4.0,East,8.1,-,0.07,Rain,Rain,80,2013-02-27 03:55:00
11:35 PM,33.8,33.8,100,30.01,3.0,ENE,16.1,21.9,0.10,Rain,Rain,70,2013-02-27 04:35:00
11:55 PM,33.8,33.8,100,29.98,4.0,East,10.4,20.7,0.17,Rain,Rain,80,2013-02-27 04:55:00